Weather reports worldwide

Advertisment
Koblenz/Falkensteinkaserne, Germany (10516): temperature & dewpoint: 19.08.2019 08:00:00 - 25.08.2019 08:00:00 (CEST)Koblenz/Falkensteinkaserne, Germany (10516): wind speed: 19.08.2019 08:00:00 - 25.08.2019 08:00:00 (CEST)Koblenz/Falkensteinkaserne, Germany (10516): wind direction: 19.08.2019 08:00:00 - 25.08.2019 08:00:00 (CEST)Koblenz/Falkensteinkaserne, Germany (10516): reduced air pressure: 19.08.2019 08:00:00 - 25.08.2019 08:00:00 (CEST)Koblenz/Falkensteinkaserne, Germany (10516): visibility: 19.08.2019 08:00:00 - 25.08.2019 08:00:00 (CEST)
Date & Time tt [°C] td [°C] ff [km/h] ff [kn] dd ppp [hPa] vv [km]
25.08.2019 08:00:00 16,5 12,5 4 2 N 1019,7 -
25.08.2019 07:00:00 15,5 12,8 4 2 N 1019,6 -
25.08.2019 06:00:00 16,0 13,0 7 4 N 1019,2 -
25.08.2019 05:00:00 16,5 13,1 7 4 SSW 1019,1 -
25.08.2019 04:00:00 16,8 13,1 7 4 N 1019,1 -
25.08.2019 03:00:00 17,1 13,4 4 2 N 1019,1 -
25.08.2019 02:00:00 18,3 13,7 7 4 SW 1019,2 -
25.08.2019 01:00:00 19,2 13,8 7 4 SW 1019,3 -
25.08.2019 00:00:00 19,4 13,7 4 2 SW 1019,1 -
24.08.2019 23:00:00 21,3 13,6 4 2 N 1018,9 -
24.08.2019 22:00:00 22,9 13,9 4 2 N 1018,9 -
24.08.2019 21:00:00 26,5 12,2 7 4 ENE 1018,5 -
24.08.2019 20:00:00 28,4 11,1 7 4 ENE 1018,3 -
24.08.2019 19:00:00 28,9 10,4 7 4 NE 1018,3 -
24.08.2019 18:00:00 29,0 8,2 11 6 ENE 1018,7 -
24.08.2019 17:00:00 29,6 7,8 7 4 E 1019,0 -
24.08.2019 16:00:00 29,2 7,0 11 6 E 1019,5 -
24.08.2019 15:00:00 28,6 8,5 7 4 NE 1019,8 -
24.08.2019 14:00:00 28,2 9,9 7 4 ENE 1020,3 -
24.08.2019 13:00:00 27,0 11,0 4 2 N 1020,8 -
24.08.2019 12:00:00 24,2 10,8 4 2 SSW 1021,7 -
24.08.2019 11:00:00 21,3 10,8 4 2 E 1022,4 -
24.08.2019 10:00:00 18,3 10,2 4 2 N 1022,8 -
24.08.2019 09:00:00 15,6 10,4 4 2 SSW 1023,1 -
24.08.2019 08:00:00 14,0 10,7 4 2 N 1022,9 -
24.08.2019 07:00:00 12,6 10,9 4 2 N 1022,9 -
24.08.2019 06:00:00 12,9 11,0 4 2 N 1022,6 -
24.08.2019 05:00:00 13,1 11,1 4 2 N 1022,8 -
24.08.2019 04:00:00 14,2 11,2 4 2 N 1022,6 -
24.08.2019 03:00:00 14,4 11,4 4 2 N 1022,6 -
24.08.2019 02:00:00 15,3 11,3 0 0 N 1022,7 -
24.08.2019 01:00:00 16,1 11,3 4 2 N 1022,8 -
24.08.2019 00:00:00 17,3 11,6 4 2 N 1022,7 -
23.08.2019 23:00:00 19,4 11,9 4 2 SW 1022,7 -
23.08.2019 22:00:00 21,2 9,4 4 2 N 1022,7 -
23.08.2019 21:00:00 24,3 9,0 4 2 N 1022,4 -
23.08.2019 20:00:00 27,4 7,7 7 4 NE 1022,2 -
23.08.2019 19:00:00 28,0 5,9 7 4 ENE 1022,3 30
23.08.2019 18:00:00 28,3 6,5 11 6 ENE 1022,6 30
23.08.2019 17:00:00 28,4 7,1 7 4 NE 1022,9 30
23.08.2019 16:00:00 28,5 7,0 7 4 ENE 1023,3 30
23.08.2019 15:00:00 27,9 6,8 7 4 NNE 1023,8 30
23.08.2019 14:00:00 27,5 7,2 7 4 N 1024,3 30
23.08.2019 13:00:00 25,9 10,0 7 4 N 1025,1 30
23.08.2019 12:00:00 22,5 11,2 4 2 N 1025,9 30
23.08.2019 11:00:00 20,0 10,7 4 2 ENE 1026,5 30
23.08.2019 10:00:00 17,2 10,2 4 2 SW 1026,8 30
23.08.2019 09:00:00 15,0 9,9 4 2 N 1027,0 30
23.08.2019 08:00:00 13,3 10,2 4 2 N 1027,0 30
23.08.2019 07:00:00 11,8 10,0 4 2 N 1026,9 30
23.08.2019 06:00:00 12,1 10,0 4 2 N 1026,8 -
23.08.2019 05:00:00 12,2 10,2 4 2 SSW 1026,5 -
23.08.2019 04:00:00 13,2 10,3 4 2 N 1026,4 -
23.08.2019 03:00:00 13,8 10,6 4 2 N 1026,2 -
23.08.2019 02:00:00 14,6 10,5 4 2 N 1026,2 -
23.08.2019 01:00:00 16,0 10,9 4 2 N 1026,2 -
23.08.2019 00:00:00 16,9 10,4 4 2 N 1025,8 -
22.08.2019 23:00:00 18,9 9,9 7 4 SSE 1025,5 -
22.08.2019 22:00:00 20,1 10,5 4 2 N 1025,4 -
22.08.2019 21:00:00 23,0 8,2 7 4 N 1024,6 30
22.08.2019 20:00:00 25,8 7,1 4 2 NE 1024,0 30
22.08.2019 19:00:00 25,8 6,4 4 2 N 1023,8 30
22.08.2019 18:00:00 26,3 6,7 7 4 NE 1024,1 30
22.08.2019 17:00:00 26,2 6,8 7 4 N 1024,4 30
22.08.2019 16:00:00 25,7 6,3 7 4 W 1024,6 30
22.08.2019 15:00:00 25,5 8,1 4 2 N 1025,0 30
22.08.2019 14:00:00 25,0 9,2 7 4 NNE 1025,4 30
22.08.2019 13:00:00 23,9 8,9 7 4 SSE 1026,1 30
22.08.2019 12:00:00 21,2 9,7 7 4 NNW 1026,7 30
22.08.2019 11:00:00 18,8 9,2 7 4 NNE 1027,2 30
22.08.2019 10:00:00 16,1 8,9 7 4 S 1027,3 30
22.08.2019 09:00:00 13,7 9,2 4 2 SW 1027,6 30
22.08.2019 08:00:00 12,0 9,2 4 2 N 1027,7 30
22.08.2019 07:00:00 10,4 9,1 4 2 N 1027,3 30
22.08.2019 06:00:00 11,3 9,7 4 2 SSW 1027,1 -
22.08.2019 05:00:00 12,0 9,7 4 2 N 1027,0 -
22.08.2019 04:00:00 12,2 9,9 4 2 N 1026,9 -
22.08.2019 03:00:00 13,1 10,3 4 2 N 1026,9 -
22.08.2019 02:00:00 13,9 10,0 4 2 NNE 1027,3 -
22.08.2019 01:00:00 15,5 10,4 7 4 SSW 1027,1 -
22.08.2019 00:00:00 15,5 9,0 4 2 ESE 1027,0 -
21.08.2019 23:00:00 16,9 10,0 0 0 N 1027,0 -
21.08.2019 22:00:00 19,0 7,3 4 2 NNW 1026,7 -
21.08.2019 21:00:00 21,5 7,3 7 4 NNE 1026,3 30
21.08.2019 20:00:00 22,9 6,3 11 6 NNE 1025,9 30
21.08.2019 19:00:00 23,3 6,2 7 4 NNE 1026,1 30
21.08.2019 18:00:00 23,6 5,7 4 2 NE 1026,2 30
21.08.2019 17:00:00 23,5 5,2 7 4 NNW 1026,6 30
21.08.2019 16:00:00 23,6 5,9 7 4 NNW 1026,8 30
21.08.2019 15:00:00 23,1 6,3 11 6 NNW 1027,3 30
21.08.2019 14:00:00 22,4 6,7 7 4 S 1027,8 30
21.08.2019 13:00:00 22,1 6,4 4 2 S 1028,3 30
21.08.2019 12:00:00 20,0 9,8 4 2 W 1028,9 30
21.08.2019 11:00:00 17,6 10,8 4 2 NE 1029,3 30
21.08.2019 10:00:00 15,8 10,7 4 2 ESE 1029,4 30
21.08.2019 09:00:00 13,6 10,3 4 2 W 1029,6 30
21.08.2019 08:00:00 12,1 9,8 4 2 NE 1029,5 30
21.08.2019 07:00:00 10,4 9,3 4 2 N 1029,4 30
21.08.2019 06:00:00 11,1 10,1 4 2 N 1028,8 -
21.08.2019 05:00:00 11,6 10,3 4 2 N 1028,5 -
21.08.2019 04:00:00 11,9 10,1 4 2 ENE 1028,1 -
21.08.2019 03:00:00 13,0 10,9 4 2 N 1027,8 -
21.08.2019 02:00:00 13,7 10,5 4 2 N 1027,6 -
21.08.2019 01:00:00 14,9 10,9 4 2 WSW 1027,1 -
21.08.2019 00:00:00 16,1 10,5 4 2 S 1026,7 -
20.08.2019 23:00:00 17,6 9,9 4 2 S 1026,3 -
20.08.2019 22:00:00 18,2 10,0 7 4 SSW 1025,8 -
20.08.2019 21:00:00 19,2 10,1 7 4 N 1025,2 25
20.08.2019 20:00:00 20,0 8,1 7 4 NNW 1024,6 25
20.08.2019 19:00:00 20,5 8,1 7 4 NW 1024,2 25
20.08.2019 18:00:00 20,8 7,9 7 4 N 1023,8 30
20.08.2019 17:00:00 20,5 7,9 7 4 NNW 1023,8 30
20.08.2019 16:00:00 20,6 7,8 4 2 NW 1023,4 30
20.08.2019 15:00:00 20,6 7,7 7 4 SE 1023,4 30
20.08.2019 14:00:00 19,5 8,4 7 4 N 1023,4 25
20.08.2019 13:00:00 18,8 8,2 7 4 E 1023,7 25
20.08.2019 12:00:00 18,1 7,0 4 2 W 1023,9 25
20.08.2019 11:00:00 16,7 9,4 4 2 NNW 1023,5 25
20.08.2019 10:00:00 15,4 10,3 4 2 N 1023,6 25
20.08.2019 09:00:00 14,0 10,1 4 2 SSE 1023,5 25
20.08.2019 08:00:00 12,7 9,8 4 2 N 1023,2 25
20.08.2019 07:00:00 11,3 9,8 4 2 N 1022,9 25
20.08.2019 06:00:00 11,8 10,0 4 2 N 1022,2 -
20.08.2019 05:00:00 12,1 10,3 4 2 N 1022,1 -
20.08.2019 04:00:00 12,4 10,5 4 2 N 1021,9 -
20.08.2019 03:00:00 13,7 10,4 4 2 N 1021,7 -
20.08.2019 02:00:00 14,6 10,3 4 2 N 1021,4 -
20.08.2019 01:00:00 16,0 10,3 4 2 N 1021,1 -
20.08.2019 00:00:00 16,3 10,3 4 2 N 1020,6 -
19.08.2019 23:00:00 17,8 9,7 4 2 NNW 1020,0 -
19.08.2019 22:00:00 18,8 9,3 7 4 N 1019,5 -
19.08.2019 21:00:00 20,0 7,8 4 2 N 1018,7 30
19.08.2019 20:00:00 22,1 8,3 7 4 W 1018,3 30
19.08.2019 19:00:00 22,4 7,7 7 4 W 1017,9 30
19.08.2019 18:00:00 22,8 7,8 11 6 WSW 1017,8 30
19.08.2019 17:00:00 22,8 7,6 11 6 WSW 1017,5 30
19.08.2019 16:00:00 23,5 7,6 14 8 WNW 1017,6 30
19.08.2019 15:00:00 23,6 9,2 7 4 W 1017,6 30
19.08.2019 14:00:00 21,8 8,1 11 6 W 1017,5 30
19.08.2019 13:00:00 22,5 8,9 11 6 SSW 1017,2 30
19.08.2019 12:00:00 21,3 9,7 14 8 SSW 1017,2 30
19.08.2019 11:00:00 20,6 10,8 11 6 SW 1016,9 30
19.08.2019 10:00:00 18,8 12,4 7 4 W 1016,7 30
19.08.2019 09:00:00 17,4 13,6 7 4 W 1016,6 25
19.08.2019 08:00:00 16,6 13,6 4 2 E 1016,2 25

tt = temperature
td = dewpoint
ff = wind speed
dd = wind direction
ppp = reduced air pressure
vv = visibility

Next stations